Home   Weather   Paraná   Past weeks
Flag for Argentina

Past Weather in Paraná, Entre Rios, Argentina — Yesterday and Last 2 Weeks

Now
61 °F

Passing clouds.


Feels Like: 61 °F
Forecast: 76 / 51 °F
Wind: 5 mph from South

Location: Sauce Viejo Aerodrome

Current Time: Oct 22, 2019 at 10:00:15 pm

Latest Report: Oct 22, 2019 at 9:00 pm


Visibility: 7 mi

Pressure: 30.01 "Hg

Humidity: 79%

Dew Point: 54 °F

Location of ParanáLocation

Past Weather in Paraná — Graph

°F

Paraná Temperature Yesterday

Maximum temperature yesterday: 72 °F (at 4:00 pm)
Minimum temperature yesterday: 50 °F (at 5:00 am)
Average temperature yesterday: 61 °F

High & Low Weather Summary for the Past Weeks

 TemperatureHumidityPressure
High98 °F (Oct 11, 3:00 pm)98% (Oct 17, 6:00 am)30.36 "Hg (Oct 17, 6:00 am)
Low47 °F (Oct 15, 6:00 am)35% (Oct 11, 3:00 pm)29.44 "Hg (Oct 12, 5:00 pm)
Average66 °F75%30.00 "Hg
* Reported Oct 7 8:00 pm — Oct 22 8:00 pm, Paraná. Weather by CustomWeather, © 2019

Note: Actual official high and low records may vary slightly from our data, if they occured in-between our weather recording intervals... More about our weather records

Advertising

Paraná Weather History for the Previous 24 Hours

Scroll right to see more
 ConditionsComfort  
Time TempWeatherWind HumidityBarometerVisibility
8:00 pm
Tue, Oct 22
61 °FPassing clouds.6 mph74%29.99 "Hg7 mi
7:00 pm65 °FPartly sunny.5 mph65%30.00 "Hg7 mi
6:00 pm67 °FPartly sunny.10 mph61%29.99 "Hg7 mi
5:00 pm67 °FPartly sunny.12 mph61%30.00 "Hg7 mi
4:00 pm69 °FPartly sunny.10 mph65%30.03 "Hg7 mi
3:00 pm65 °FOvercast.13 mph67%30.07 "Hg7 mi
2:00 pm65 °FOvercast.15 mph74%30.08 "Hg7 mi
12:00 pm64 °FOvercast.15 mph77%30.12 "Hg7 mi
11:00 am62 °FOvercast.10 mph82%30.13 "Hg7 mi
10:00 am63 °FOvercast.5 mph76%30.11 "Hg7 mi
9:00 am59 °FOvercast.7 mph85%30.12 "Hg7 mi
8:00 am57 °FOvercast.6 mph91%30.09 "Hg7 mi
7:00 am53 °FOvercast.3 mph92%30.02 "Hg7 mi
6:00 am52 °FPassing clouds.2 mph94%30.02 "Hg7 mi
5:00 am50 °FClear.2 mph94%30.01 "Hg7 mi
4:00 am52 °FClear.6 mph96%29.98 "Hg7 mi
3:00 am53 °FClear.2 mph93%30.01 "Hg7 mi
2:00 am53 °FClear.5 mph96%30.02 "Hg7 mi
1:00 am54 °FClear.3 mph94%30.03 "Hg7 mi
12:00 am56 °FClear.2 mph92%30.04 "Hg7 mi
11:00 pm
Mon, Oct 21
57 °FClear.2 mph92%30.02 "Hg7 mi
10:00 pm60 °FClear.3 mph82%30.02 "Hg7 mi
Weather by CustomWeather, © 2019

See weather overview